DW6417 Weather Reports


Display with metric or nautical units.
time (UTC)temp
F
wind
direction
speed
MPH
gust
MPH
rain 1hr
in
rain 24hr
in
rain mn
in
humidity
%
barometer
mb
20260508182625 60 82 1.0 2.0 0.00 0.00 0.00 56 1015.8
20260508182419 60 82 1.0 2.0 0.00 0.00 0.00 56 1015.8
20260508181920 61 82 1.0 3.0 0.00 0.00 0.00 56 1015.7
20260508181625 61 82 1.0 3.0 0.00 0.00 0.00 56 1015.6
20260508181419 61 83 1.0 3.0 0.00 0.00 0.00 56 1015.7
20260508180919 61 82 1.0 3.0 0.00 0.00 0.00 56 1015.8
20260508180625 61 82 0.0 2.0 0.00 0.00 0.00 54 1015.5
20260508175919 61 83 2.0 5.0 0.00 0.00 0.00 54 1015.5
20260508175625 62 82 2.0 5.0 0.00 0.00 0.00 52 1015.4
20260508175419 62 83 2.0 5.0 0.00 0.00 0.00 52 1015.5
20260508174919 62 86 2.0 5.0 0.00 0.00 0.00 51 1015.4
20260508174625 62 82 2.0 4.0 0.00 0.00 0.00 52 1015.3
20260508174419 62 93 2.0 4.0 0.00 0.00 0.00 52 1015.3
20260508173921 62 98 2.0 4.0 0.00 0.00 0.00 52 1015.4
20260508173625 62 99 1.0 3.0 0.00 0.00 0.00 52 1015.4
20260508173420 62 98 2.0 4.0 0.00 0.00 0.00 52 1015.4
20260508172919 62 99 2.0 5.0 0.00 0.00 0.00 50 1015.3
20260508172625 62 99 2.0 5.0 0.00 0.00 0.00 50 1015.2
20260508172419 62 101 2.0 7.0 0.00 0.00 0.00 50 1015.2
20260508171919 62 106 2.0 7.0 0.00 0.00 0.00 49 1015.2
20260508171625 63 109 2.0 6.0 0.00 0.00 0.00 47 1015.2
20260508171419 63 109 2.0 6.0 0.00 0.00 0.00 47 1015.2
20260508170919 63 111 2.0 6.0 0.00 0.00 0.00 49 1015.2
20260508170625 63 112 2.0 6.0 0.00 0.00 0.00 48 1015.2
20260508170419 63 111 2.0 6.0 0.00 0.00 0.00 48 1015.2
20260508165919 63 111 1.0 3.0 0.00 0.00 0.00 48 1015.2
20260508165627 63 112 1.0 2.0 0.00 0.00 0.00 46 1015.2
20260508165419 63 112 1.0 6.0 0.00 0.00 0.00 46 1015.1
20260508164919 63 104 2.0 8.0 0.00 0.00 0.00 48 1015.1
20260508164626 63 113 2.0 8.0 0.00 0.00 0.00 44 1015.1
20260508164419 63 75 3.0 8.0 0.00 0.00 0.00 44 1015.1
20260508163625 64 57 4.0 9.0 0.00 0.00 0.00 44 1015.2
20260508163419 64 62 3.0 9.0 0.00 0.00 0.00 44 1015.2
20260508162919 64 36 2.0 6.0 0.00 0.00 0.00 45 1015.1
20260508162625 64 12 2.0 6.0 0.00 0.00 0.00 47 1015.2
20260508161919 64 46 2.0 5.0 0.00 0.00 0.00 47 1015.2
20260508161625 64 71 2.0 5.0 0.00 0.00 0.00 46 1015.2
20260508161419 64 71 2.0 9.0 0.00 0.00 0.00 46 1015.2
20260508160919 64 64 3.0 9.0 0.00 0.00 0.00 43 1015.2
20260508160626 64 45 2.0 5.0 0.00 0.00 0.00 44 1015.2
20260508155919 64 63 2.0 7.0 0.00 0.00 0.00 45 1015.3
20260508155420 64 64 2.0 5.0 0.00 0.00 0.00 46 1015.4
20260508154920 64 64 1.0 4.0 0.00 0.00 0.00 43 1015.5
20260508154625 64 63 1.0 3.0 0.00 0.00 0.00 45 1015.4
20260508154419 64 64 1.0 3.0 0.00 0.00 0.00 45 1015.5
20260508153920 65 64 2.0 5.0 0.00 0.00 0.00 44 1015.4
20260508153625 65 63 2.0 4.0 0.00 0.00 0.00 44 1015.6
20260508153420 65 60 3.0 9.0 0.00 0.00 0.00 44 1015.6
20260508152920 65 61 3.0 9.0 0.00 0.00 0.00 44 1015.5
20260508152625 65 69 2.0 5.0 0.00 0.00 0.00 44 1015.6
20260508152419 65 67 1.0 5.0 0.00 0.00 0.00 44 1015.6
20260508151625 66 66 1.0 4.0 0.00 0.00 0.00 41 1015.7
20260508151419 66 66 2.0 4.0 0.00 0.00 0.00 41 1015.7
20260508150920 65 65 2.0 4.0 0.00 0.00 0.00 47 1015.7
20260508150625 65 64 2.0 4.0 0.00 0.00 0.00 47 1015.7
20260508145919 65 64 2.0 4.0 0.00 0.00 0.00 47 1015.7
20260508145625 64 64 2.0 4.0 0.00 0.00 0.00 48 1015.6
20260508144919 64 92 2.0 4.0 0.00 0.00 0.00 49 1015.6
20260508144625 63 94 1.0 4.0 0.00 0.00 0.00 46 1015.6
20260508144419 63 92 2.0 5.0 0.00 0.00 0.00 46 1015.6
20260508143919 63 81 2.0 5.0 0.00 0.00 0.00 46 1015.7
20260508143625 64 63 1.0 4.0 0.00 0.00 0.00 42 1015.8
20260508142919 64 52 3.0 6.0 0.00 0.00 0.00 45 1015.7
20260508142625 64 63 3.0 7.0 0.00 0.00 0.00 47 1015.8
20260508142419 64 48 3.0 6.0 0.00 0.00 0.00 52 1015.7
20260508141625 63 53 1.0 4.0 0.00 0.00 0.00 54 1016.0
20260508141419 64 54 1.0 4.0 0.00 0.00 0.00 50 1016.0
20260508140920 63 54 1.0 4.0 0.00 0.00 0.00 54 1016.0
20260508140625 63 53 1.0 3.0 0.00 0.00 0.00 51 1016.0
20260508140419 63 54 2.0 4.0 0.00 0.00 0.00 51 1016.0
20260508135919 63 36 2.0 5.0 0.00 0.00 0.00 55 1016.1
20260508135625 62 53 2.0 5.0 0.00 0.00 0.00 56 1016.2
20260508135419 62 342 2.0 5.0 0.00 0.00 0.00 56 1016.1
20260508134919 62 319 2.0 4.0 0.00 0.00 0.00 61 1016.2
20260508134625 62 305 2.0 4.0 0.00 0.00 0.00 61 1016.2
20260508134419 62 348 2.0 4.0 0.00 0.00 0.00 61 1016.2
20260508133919 62 18 2.0 5.0 0.00 0.00 0.00 60 1016.1
20260508133625 61 17 2.0 5.0 0.00 0.00 0.00 60 1016.1
20260508133419 61 18 2.0 5.0 0.00 0.00 0.00 60 1016.2
20260508132919 61 15 2.0 5.0 0.00 0.00 0.00 62 1016.1
20260508132625 61 17 2.0 5.0 0.00 0.00 0.00 62 1016.2
20260508132419 61 13 2.0 5.0 0.00 0.00 0.00 62 1016.2
20260508131919 61 12 2.0 5.0 0.00 0.00 0.00 62 1016.1
20260508131625 61 12 2.0 5.0 0.00 0.00 0.00 60 1016.2
20260508131420 61 12 2.0 5.0 0.00 0.00 0.00 60 1016.2
20260508130919 61 12 1.0 4.0 0.00 0.00 0.00 59 1016.2
20260508130625 61 12 1.0 4.0 0.00 0.00 0.00 61 1016.2
20260508130419 61 12 2.0 4.0 0.00 0.00 0.00 61 1016.2
20260508125625 61 12 2.0 4.0 0.00 0.00 0.00 61 1016.4
20260508124919 61 36 3.0 5.0 0.00 0.00 0.00 61 1016.3
20260508124625 61 12 2.0 5.0 0.00 0.00 0.00 62 1016.4
20260508124419 61 63 3.0 6.0 0.00 0.00 0.00 62 1016.4
20260508123919 61 66 2.0 6.0 0.00 0.00 0.00 62 1016.3
20260508123625 61 66 1.0 4.0 0.00 0.00 0.00 63 1016.4
20260508123419 61 67 2.0 4.0 0.00 0.00 0.00 63 1016.4
20260508122919 61 67 3.0 6.0 0.00 0.00 0.00 61 1016.3
20260508122625 61 66 3.0 6.0 0.00 0.00 0.00 60 1016.3
20260508122420 61 66 3.0 6.0 0.00 0.00 0.00 60 1016.3
20260508121919 62 66 3.0 5.0 0.00 0.00 0.00 62 1016.3
20260508120920 62 72 3.0 9.0 0.00 0.00 0.00 61 1016.2
20260508120625 62 66 4.0 9.0 0.00 0.00 0.00 62 1016.1
20260508120419 62 79 4.0 9.0 0.00 0.00 0.00 62 1016.1
20260508115921 62 82 3.0 6.0 0.00 0.00 0.00 61 1016.2
20260508115625 63 82 3.0 6.0 0.00 0.00 0.00 61 1016.1
20260508115420 63 68 3.0 7.0 0.00 0.00 0.00 61 1016.1
20260508114920 63 56 3.0 9.0 0.00 0.00 0.00 62 1016.1
20260508114625 63 55 3.0 9.0 0.00 0.00 0.00 62 1016.1
20260508114419 63 64 3.0 9.0 0.00 0.00 0.00 62 1016.1
20260508113920 63 84 3.0 8.0 0.00 0.00 0.00 62 1016.1
20260508113626 64 63 2.0 8.0 0.00 0.00 0.00 61 1016.1
20260508112919 64 111 2.0 7.0 0.00 0.00 0.00 59 1016.1
20260508112625 64 111 2.0 7.0 0.00 0.00 0.00 60 1016.2
20260508112420 64 111 2.0 7.0 0.00 0.00 0.00 60 1016.2
20260508111919 64 111 2.0 3.0 0.00 0.00 0.00 61 1016.2
20260508111625 64 112 1.0 3.0 0.00 0.00 0.00 61 1016.1
20260508111420 64 112 2.0 4.0 0.00 0.00 0.00 61 1016.1
20260508110919 64 113 2.0 4.0 0.00 0.00 0.00 60 1016.2
20260508110625 64 114 1.0 3.0 0.00 0.00 0.00 56 1016.2
20260508110420 64 114 1.0 3.0 0.00 0.00 0.00 56 1016.2
20260508105919 65 127 2.0 8.0 0.00 0.00 0.00 55 1016.2
20260508105625 65 114 3.0 8.0 0.00 0.00 0.00 55 1016.2
20260508105420 65 120 3.0 8.0 0.00 0.00 0.00 55 1016.2
20260508104919 66 89 3.0 7.0 0.00 0.00 0.00 56 1016.3
20260508104625 66 80 3.0 7.0 0.00 0.00 0.00 59 1016.2
20260508104420 66 45 3.0 7.0 0.00 0.00 0.00 59 1016.2
20260508103919 65 72 3.0 6.0 0.00 0.00 0.00 61 1016.2
20260508103625 65 100 3.0 6.0 0.00 0.00 0.00 58 1016.3
20260508103420 65 80 3.0 6.0 0.00 0.00 0.00 58 1016.3
20260508102920 65 63 2.0 7.0 0.00 0.00 0.00 60 1016.2
20260508102625 65 61 2.0 7.0 0.00 0.00 0.00 56 1016.2
20260508102419 65 66 2.0 7.0 0.00 0.00 0.00 56 1016.2
20260508101920 65 70 2.0 6.0 0.00 0.00 0.00 57 1016.2
20260508101626 64 70 2.0 4.0 0.00 0.00 0.00 58 1016.3
20260508101420 64 69 3.0 10.0 0.00 0.00 0.00 58 1016.3
20260508100920 64 74 4.0 10.0 0.00 0.00 0.00 57 1016.3
20260508100625 63 70 4.0 8.0 0.00 0.00 0.00 57 1016.3
20260508095625 63 63 3.0 9.0 0.00 0.00 0.00 61 1016.5
20260508095420 63 64 2.0 9.0 0.00 0.00 0.00 61 1016.5
20260508094920 63 54 2.0 6.0 0.00 0.00 0.00 57 1016.5
20260508094625 62 47 3.0 6.0 0.00 0.00 0.00 60 1016.6
20260508094420 62 76 3.0 7.0 0.00 0.00 0.00 60 1016.6
20260508093920 62 92 3.0 9.0 0.00 0.00 0.00 60 1016.4
20260508093625 62 91 4.0 9.0 0.00 0.00 0.00 61 1016.5
20260508093420 62 96 4.0 9.0 0.00 0.00 0.00 61 1016.4
20260508092625 61 104 3.0 10.0 0.00 0.00 0.00 62 1016.4
20260508092420 61 106 3.0 10.0 0.00 0.00 0.00 62 1016.4
20260508091920 61 100 4.0 8.0 0.00 0.00 0.00 61 1016.5
20260508091625 61 95 3.0 7.0 0.00 0.00 0.00 60 1016.5
20260508091420 61 95 3.0 7.0 0.00 0.00 0.00 60 1016.5
20260508090920 60 98 3.0 8.0 0.00 0.00 0.00 66 1016.4
20260508090420 60 101 3.0 8.0 0.00 0.00 0.00 68 1016.4
20260508085920 59 103 3.0 7.0 0.00 0.00 0.00 69 1016.4
20260508085625 59 104 3.0 7.0 0.00 0.00 0.00 70 1016.5
20260508085420 59 105 4.0 8.0 0.00 0.00 0.00 70 1016.5
20260508084625 59 103 4.0 8.0 0.00 0.00 0.00 71 1016.4
20260508084420 59 104 4.0 8.0 0.00 0.00 0.00 71 1016.4
20260508083920 58 105 3.0 7.0 0.00 0.00 0.00 72 1016.5
20260508083625 58 105 3.0 5.0 0.00 0.00 0.00 72 1016.5
20260508082920 58 103 4.0 8.0 0.00 0.00 0.00 74 1016.4
20260508082625 57 99 4.0 7.0 0.00 0.00 0.00 74 1016.4
20260508082420 57 97 4.0 8.0 0.00 0.00 0.00 73 1016.4
20260508081920 57 95 3.0 8.0 0.00 0.00 0.00 74 1016.4
20260508081626 56 95 2.0 4.0 0.00 0.00 0.00 76 1016.5
20260508081420 56 95 3.0 8.0 0.00 0.00 0.00 76 1016.5
20260508080919 56 95 4.0 8.0 0.00 0.00 0.00 74 1016.5
20260508080625 56 95 4.0 8.0 0.00 0.00 0.00 76 1016.4
20260508080420 56 91 4.0 8.0 0.00 0.00 0.00 76 1016.4
20260508075919 55 83 3.0 7.0 0.00 0.00 0.00 76 1016.3
20260508075625 56 79 3.0 6.0 0.00 0.01 0.00 76 1016.5
20260508075420 56 79 3.0 6.0 0.00 0.00 0.00 76 1016.5
20260508074920 56 79 4.0 8.0 0.00 0.01 0.00 77 1016.5
20260508074625 55 78 4.0 8.0 0.00 0.01 0.00 77 1016.5
20260508074420 55 80 4.0 8.0 0.00 0.01 0.00 77 1016.5
20260508073420 54 78 2.0 8.0 0.00 0.01 0.00 78 1016.5
20260508072920 54 78 2.0 8.0 0.00 0.01 0.00 80 1016.5
20260508072625 53 78 2.0 6.0 0.00 0.01 0.00 80 1016.5
20260508072419 53 77 3.0 6.0 0.00 0.01 0.00 80 1016.5
20260508071922 53 76 3.0 6.0 0.00 0.01 0.00 80 1016.4
20260508070919 52 70 2.0 5.0 0.00 0.01 0.00 81 1016.6
20260508070625 52 70 2.0 5.0 0.00 0.01 0.00 82 1016.5
20260508070419 52 70 3.0 5.0 0.00 0.01 0.00 82 1016.5
20260508065919 51 70 3.0 5.0 0.00 0.01 0.00 83 1016.4
20260508065626 51 70 3.0 5.0 0.00 0.01 0.00 82 1016.3
20260508064919 51 70 3.0 6.0 0.00 0.01 0.00 83 1016.4
20260508064625 51 70 2.0 5.0 0.00 0.01 0.00 83 1016.4
20260508063919 50 70 3.0 6.0 0.00 0.01 0.00 83 1016.4
20260508063625 50 70 4.0 6.0 0.00 0.01 0.00 84 1016.3
20260508063419 50 68 4.0 6.0 0.00 0.01 0.00 84 1016.3
20260508062919 50 65 3.0 6.0 0.00 0.01 0.00 84 1016.2
20260508062625 50 61 2.0 5.0 0.00 0.01 0.00 84 1016.2
20260508062419 50 61 2.0 5.0 0.00 0.01 0.00 84 1016.2
20260508061919 50 59 3.0 5.0 0.00 0.01 0.00 84 1016.2
20260508061625 50 57 2.0 5.0 0.00 0.01 0.00 84 1016.1
20260508061419 50 58 2.0 5.0 0.00 0.01 0.00 84 1016.1
20260508060919 50 58 3.0 6.0 0.00 0.01 0.00 84 1016.1
20260508060625 49 57 3.0 6.0 0.00 0.01 0.00 84 1015.9
20260508060420 49 57 3.0 6.0 0.00 0.01 0.00 84 1015.9
20260508055919 49 54 3.0 6.0 0.00 0.01 0.00 85 1015.8
20260508055627 49 57 3.0 6.0 0.00 0.01 0.00 85 1015.9
20260508055419 49 50 3.0 6.0 0.00 0.01 0.00 85 1015.9
20260508054919 49 50 3.0 5.0 0.00 0.01 0.00 85 1015.9
20260508054625 49 49 2.0 5.0 0.00 0.01 0.00 85 1016.0
20260508054419 49 49 3.0 6.0 0.00 0.01 0.00 85 1016.0
20260508053919 49 46 3.0 6.0 0.00 0.01 0.00 85 1016.0
20260508053625 49 43 3.0 5.0 0.00 0.01 0.00 85 1016.0
20260508053419 49 42 3.0 5.0 0.00 0.01 0.00 85 1015.9
20260508052919 49 38 3.0 5.0 0.00 0.01 0.00 85 1015.9
20260508052625 49 39 3.0 5.0 0.00 0.01 0.00 85 1015.9
20260508052419 49 32 2.0 5.0 0.00 0.01 0.00 85 1015.9
20260508051919 49 27 3.0 7.0 0.00 0.01 0.00 85 1015.7
20260508051625 49 28 3.0 7.0 0.00 0.01 0.00 85 1015.6
20260508051419 49 24 3.0 7.0 0.00 0.01 0.00 85 1015.7
20260508050919 49 30 2.0 5.0 0.00 0.01 0.00 85 1015.8
20260508050627 49 22 1.0 4.0 0.00 0.01 0.00 85 1015.8
20260508050419 49 64 2.0 6.0 0.00 0.01 0.00 85 1015.8
20260508045919 49 73 2.0 6.0 0.00 0.01 0.00 85 1015.7
20260508045625 49 72 2.0 5.0 0.00 0.01 0.00 85 1015.8
20260508045419 49 72 2.0 5.0 0.00 0.01 0.00 85 1015.8
20260508044919 49 73 2.0 4.0 0.00 0.01 0.00 85 1015.8
20260508044625 49 72 3.0 5.0 0.00 0.01 0.00 85 1015.6
20260508044419 49 73 3.0 5.0 0.00 0.01 0.00 85 1015.6
20260508043919 49 73 3.0 6.0 0.00 0.01 0.00 85 1015.7
20260508043625 49 72 3.0 6.0 0.00 0.01 0.00 85 1015.6
20260508043419 49 73 3.0 6.0 0.00 0.01 0.00 85 1015.6
20260508042919 49 73 2.0 5.0 0.00 0.01 0.00 85 1015.6
20260508041419 49 73 2.0 4.0 0.00 0.01 0.00 85 1015.5
20260508040919 49 73 2.0 5.0 0.00 0.01 0.00 85 1015.6
20260508040625 49 72 4.0 5.0 0.00 0.01 0.00 85 1015.5
20260508040419 49 73 3.0 6.0 0.00 0.01 0.00 85 1015.4
20260508035625 49 72 3.0 7.0 0.00 0.01 0.00 84 1015.4
20260508035419 49 74 4.0 7.0 0.00 0.01 0.00 84 1015.4
20260508034919 49 75 3.0 7.0 0.00 0.01 0.00 84 1015.5
20260508034625 49 75 3.0 6.0 0.00 0.01 0.00 84 1015.5
20260508034419 49 76 3.0 6.0 0.00 0.01 0.00 84 1015.5
20260508033919 49 75 3.0 6.0 0.00 0.01 0.00 84 1015.5
20260508033625 49 75 3.0 6.0 0.00 0.01 0.00 84 1015.5
20260508033419 49 75 3.0 6.0 0.00 0.01 0.00 84 1015.4
20260508032919 49 75 3.0 5.0 0.00 0.01 0.00 84 1015.4
20260508032625 49 75 3.0 4.0 0.00 0.01 0.00 84 1015.4
20260508032419 49 75 3.0 6.0 0.00 0.01 0.00 84 1015.5
20260508031919 49 75 3.0 6.0 0.00 0.01 0.00 84 1015.5
20260508031419 49 76 3.0 6.0 0.00 0.01 0.00 83 1015.4
20260508030919 49 76 3.0 6.0 0.00 0.01 0.00 83 1015.5
20260508030625 49 75 2.0 5.0 0.00 0.01 0.00 83 1015.4
20260508030420 49 76 2.0 6.0 0.00 0.01 0.00 83 1015.4
20260508025919 49 76 2.0 6.0 0.00 0.01 0.00 83 1015.4
20260508025419 49 75 2.0 4.0 0.00 0.01 0.00 83 1015.4
20260508024626 50 75 3.0 6.0 0.00 0.01 0.00 83 1015.4
20260508024419 50 75 2.0 6.0 0.00 0.01 0.00 83 1015.4
20260508023919 50 76 2.0 5.0 0.00 0.01 0.00 82 1015.3
20260508023625 50 75 2.0 5.0 0.00 0.01 0.00 82 1015.4
20260508023419 50 76 2.0 5.0 0.00 0.01 0.00 82 1015.4
20260508022919 50 76 2.0 4.0 0.00 0.01 0.00 82 1015.4
20260508022625 50 75 2.0 4.0 0.00 0.01 0.00 82 1015.3
20260508022419 50 76 3.0 5.0 0.00 0.01 0.00 82 1015.3
20260508021919 50 76 3.0 7.0 0.00 0.01 0.00 82 1015.3
20260508020919 50 77 3.0 5.0 0.00 0.01 0.00 82 1015.3
20260508020625 50 77 2.0 4.0 0.00 0.01 0.00 81 1015.4
20260508015919 50 78 3.0 6.0 0.00 0.01 0.00 81 1015.5
20260508015625 50 77 3.0 5.0 0.00 0.01 0.00 81 1015.5
20260508015419 50 78 2.0 5.0 0.00 0.01 0.00 81 1015.5
20260508014625 50 78 2.0 4.0 0.00 0.01 0.00 81 1015.4
20260508014420 50 78 2.0 5.0 0.00 0.01 0.00 81 1015.4
20260508013920 51 78 3.0 7.0 0.00 0.01 0.00 80 1015.4
20260508013626 51 77 3.0 7.0 0.00 0.01 0.00 80 1015.4
20260508013419 51 78 3.0 7.0 0.00 0.01 0.00 80 1015.4
20260508012625 51 78 3.0 5.0 0.00 0.01 0.00 79 1015.2
20260508012419 51 78 3.0 5.0 0.00 0.01 0.00 79 1015.2
20260508011919 51 77 3.0 6.0 0.00 0.01 0.00 79 1015.2
20260508011625 51 77 2.0 6.0 0.00 0.01 0.00 79 1015.3
20260508011419 51 77 3.0 6.0 0.00 0.01 0.00 79 1015.3
20260508010920 51 77 3.0 5.0 0.00 0.01 0.00 79 1015.3
20260508010625 51 77 3.0 5.0 0.00 0.01 0.00 79 1015.3
20260508010419 51 77 3.0 5.0 0.00 0.01 0.00 79 1015.3
20260508005625 51 77 3.0 5.0 0.00 0.01 0.00 78 1015.3
20260508005419 51 77 3.0 5.0 0.00 0.01 0.00 78 1015.3
20260508004625 52 77 4.0 8.0 0.00 0.01 0.00 78 1015.4
20260508004420 52 80 3.0 8.0 0.00 0.01 0.00 78 1015.4
20260508003625 52 82 3.0 6.0 0.00 0.01 0.00 77 1015.4
20260508002625 52 82 2.0 4.0 0.00 0.01 0.00 76 1015.4
20260508002419 52 83 3.0 5.0 0.00 0.01 0.00 76 1015.4
20260508001625 52 82 2.0 4.0 0.00 0.01 0.00 76 1015.5
20260508000920 52 83 2.0 5.0 0.00 0.01 0.00 76 1015.4
20260508000625 52 82 2.0 4.0 0.00 0.01 0.00 76 1015.5
20260508000419 52 83 2.0 4.0 0.00 0.01 0.00 76 1015.5
20260507235920 52 83 2.0 4.0 0.00 0.01 0.00 76 1015.5
20260507235625 53 82 2.0 4.0 0.00 0.01 0.00 75 1015.6
20260507235419 53 83 2.0 5.0 0.00 0.01 0.00 75 1015.6
20260507234920 53 83 2.0 5.0 0.00 0.01 0.00 75 1015.6
20260507234419 53 82 1.0 4.0 0.00 0.01 0.00 75 1015.6
20260507233920 53 83 1.0 3.0 0.00 0.01 0.00 74 1015.7
20260507233625 53 82 1.0 3.0 0.00 0.01 0.00 74 1015.7
20260507233419 53 83 2.0 5.0 0.00 0.01 0.00 74 1015.7
20260507232920 53 82 3.0 5.0 0.00 0.01 0.00 74 1015.7
20260507232625 53 82 2.0 5.0 0.00 0.01 0.00 74 1015.6
20260507232420 53 82 3.0 5.0 0.00 0.01 0.00 74 1015.6
20260507231919 53 82 2.0 5.0 0.00 0.01 0.00 73 1015.6
20260507231625 53 81 2.0 3.0 0.00 0.01 0.00 73 1015.6
20260507230920 53 82 3.0 5.0 0.00 0.01 0.00 73 1015.6
20260507230625 53 81 2.0 5.0 0.00 0.01 0.00 73 1015.6
20260507230419 53 82 3.0 6.0 0.00 0.01 0.00 73 1015.6
20260507225920 53 82 2.0 6.0 0.00 0.01 0.00 72 1015.5
20260507225419 53 81 2.0 4.0 0.00 0.01 0.00 72 1015.6
20260507224920 53 82 3.0 6.0 0.00 0.01 0.00 72 1015.6
20260507224625 53 80 3.0 6.0 0.00 0.01 0.00 71 1015.7
20260507224420 53 84 3.0 6.0 0.00 0.01 0.00 71 1015.7
20260507223920 54 84 3.0 6.0 0.00 0.01 0.00 71 1015.6
20260507223625 54 84 3.0 5.0 0.00 0.01 0.00 70 1015.6
20260507223420 54 85 3.0 6.0 0.00 0.01 0.00 70 1015.6
20260507222919 54 84 3.0 8.0 0.00 0.01 0.00 70 1015.6
20260507222625 54 84 3.0 8.0 0.00 0.01 0.00 70 1015.5
20260507222419 54 84 3.0 8.0 0.00 0.01 0.00 70 1015.5
20260507221920 54 92 3.0 8.0 0.00 0.01 0.00 69 1015.6
20260507221625 54 143 2.0 4.0 0.00 0.01 0.00 69 1015.5
20260507221420 54 120 3.0 7.0 0.00 0.01 0.00 69 1015.5
20260507220625 54 143 3.0 5.0 0.00 0.01 0.00 69 1015.5
20260507220419 54 146 3.0 7.0 0.00 0.01 0.00 69 1015.5
20260507215925 54 148 3.0 7.0 0.00 0.01 0.00 69 1015.5
20260507215420 54 149 1.0 4.0 0.00 0.01 0.01 70 1015.4
20260507214420 54 150 2.0 4.0 0.00 0.01 0.01 69 1015.4
20260507213920 54 150 2.0 4.0 0.00 0.01 0.01 70 1015.4
20260507213625 54 150 1.0 3.0 0.00 0.01 0.01 69 1015.3
20260507212919 54 162 1.0 4.0 0.00 0.01 0.01 69 1015.3
20260507212625 54 150 1.0 4.0 0.00 0.01 0.01 69 1015.2
20260507212420 54 235 1.0 4.0 0.00 0.01 0.01 69 1015.2
20260507211920 54 264 1.0 4.0 0.00 0.01 0.01 69 1015.3
20260507211625 54 267 1.0 4.0 0.00 0.01 0.01 70 1015.2
20260507211419 54 0 0.0 4.0 0.00 0.01 0.01 70 1015.2
20260507210920 54 0 0.0 0.0 0.00 0.01 0.01 73 1015.2
20260507210625 53 271 0.0 0.0 0.00 0.01 0.01 74 1015.2
20260507210421 53 0 0.0 0.0 0.00 0.01 0.01 74 1015.2
20260507205919 53 0 0.0 0.0 0.00 0.01 0.01 79 1015.2
20260507205625 54 271 0.0 0.0 0.00 0.01 0.01 79 1015.2
20260507205419 54 0 0.0 0.0 0.00 0.01 0.01 79 1015.2
20260507204919 53 0 0.0 0.0 0.00 0.01 0.01 78 1015.0
20260507204625 54 271 0.0 0.0 0.00 0.01 0.01 78 1015.0
20260507204420 54 0 0.0 0.0 0.00 0.01 0.01 78 1015.0
20260507203920 54 0 0.0 0.0 0.00 0.01 0.01 77 1015.0
20260507203625 54 271 0.0 0.0 0.00 0.01 0.01 78 1014.9
20260507202920 54 0 0.0 0.0 0.00 0.01 0.01 77 1014.9
20260507202625 54 271 0.0 0.0 0.00 0.01 0.01 78 1014.9
20260507202419 54 0 0.0 0.0 0.00 0.01 0.01 78 1014.9
20260507201920 54 0 0.0 0.0 0.00 0.01 0.01 78 1014.8
20260507201625 54 271 0.0 0.0 0.00 0.01 0.01 77 1014.8
20260507201419 54 0 0.0 0.0 0.00 0.01 0.01 77 1014.9
20260507200625 54 271 0.0 0.0 0.00 0.01 0.01 77 1014.8
20260507195919 54 0 0.0 1.0 0.00 0.01 0.01 76 1014.8
20260507195419 55 0 0.0 1.0 0.00 0.01 0.01 75 1014.7
20260507194920 55 0 0.0 0.0 0.00 0.01 0.01 76 1014.6
20260507194626 55 271 0.0 0.0 0.00 0.01 0.01 75 1014.6
20260507194419 55 0 0.0 0.0 0.00 0.01 0.01 75 1014.6
20260507193920 55 0 0.0 0.0 0.00 0.01 0.01 75 1014.5
20260507193420 55 0 0.0 0.0 0.00 0.01 0.01 74 1014.5
20260507192919 56 0 0.0 0.0 0.00 0.01 0.01 73 1014.5
20260507192626 56 271 0.0 0.0 0.00 0.01 0.01 73 1014.4
20260507192419 56 0 0.0 0.0 0.00 0.01 0.01 73 1014.4
20260507191919 56 0 0.0 1.0 0.00 0.01 0.01 73 1014.3
20260507191419 57 270 1.0 1.0 0.00 0.01 0.01 72 1014.3
20260507190919 57 270 1.0 1.0 0.00 0.01 0.01 72 1014.3
20260507190625 57 271 0.0 1.0 0.00 0.01 0.01 71 1014.4
20260507190420 57 0 0.0 1.0 0.00 0.01 0.01 71 1014.4
20260507185919 58 0 0.0 1.0 0.00 0.01 0.01 71 1014.3
20260507185626 58 271 0.0 0.0 0.00 0.01 0.01 71 1014.4
20260507185419 58 0 0.0 0.0 0.00 0.01 0.01 71 1014.4
20260507184920 58 0 0.0 0.0 0.00 0.01 0.01 71 1014.4
20260507184625 58 271 0.0 0.0 0.00 0.01 0.01 69 1014.3
20260507184419 58 0 0.0 0.0 0.00 0.01 0.01 69 1014.3
20260507183919 58 0 0.0 2.0 0.00 0.01 0.01 69 1014.3
20260507183625 59 271 0.0 2.0 0.00 0.01 0.01 69 1014.3
20260507182919 59 284 1.0 2.0 0.00 0.01 0.01 67 1014.2